Regional Weather Roundup
Issued by NWS

Home | Current Version | Previous Version | Text Only | Print | Product List | Glossary Off
Versions: 1 2 3 4 5 6 7 8 9 10 11 12 13 14 15 16 17 18 19 20 21 22 23 24 25 26 27 28 29 30 31 32 33 34 35 36 37 38 39 40 41 42 43 44 45 46 47 48 49 50

000
ASUS43 KFSD 280702
RWRSD

WEATHER ROUNDUP FOR SOUTH DAKOTA
NATIONAL WEATHER SERVICE SIOUX FALLS SD
200 AM CDT MON JUL 28 2014

NOTE: "FAIR" INDICATES FEW OR NO CLOUDS BELOW 12,000 FEET WITH NO
SIGNIFICANT WEATHER AND/OR OBSTRUCTIONS TO VISIBILITY.


SDZ001>005-009-010-012>017-280800-
NORTHWEST AND NORTH CENTRAL SOUTH DAKOTA

CITY           SKY/WX    TMP DP  RH WIND       PRES   REMARKS
BUFFALO          N/A     57  52  83 S6        30.29R
FAITH            N/A     55  50  83 E8        30.33S
MOBRIDGE       CLEAR     55  52  89 NE6       30.28R
$$

SDZ012>016-024>037-041>051-057-063-072>074-280800-
SOUTHWEST AND SOUTH CENTRAL SOUTH DAKOTA

CITY           SKY/WX    TMP DP  RH WIND       PRES   REMARKS
RAPID CTY ARPT CLEAR     54  50  86 CALM      30.36R
PIERRE         CLEAR     57  54  89 SW6       30.29S
CUSTER         CLEAR     53  47  79 NE6       30.44R
ELLSWORTH AFB  CLEAR     62  53  72 VRB2      30.36R
PHILIP         CLEAR     58  51  78 NE3       30.32S
PINE RIDGE     CLEAR     56  52  86 NE5       30.34R
WINNER         FAIR      58  53  84 SE3       30.31R
$$

SDZ004>011-016>023-039-040-280800-
NORTHEAST SOUTH DAKOTA

CITY           SKY/WX    TMP DP  RH WIND       PRES   REMARKS
ABERDEEN       PTCLDY    53  52  96 NW8       30.26S
WATERTOWN      CLOUDY    59  54  83 N10       30.24R
SISSETON         N/A     58  57  97 N6        30.22S
$$

SDZ017-020-022-023-036>040-048>070-280800-
SOUTHEAST SOUTH DAKOTA

CITY           SKY/WX    TMP DP  RH WIND       PRES   REMARKS
SIOUX FALLS    CLEAR     58  54  86 NW6       30.23S
HURON          CLEAR     52  50  93 NW6       30.26R
CHAMBERLAIN    CLEAR     52  49  91 W3        30.30R
MITCHELL       CLEAR     56  54  93 W7        30.26S
YANKTON        CLOUDY    61  55  82 NW5       30.25S
$$

ABBREVIATIONS USED IN REMARKS
   TC - TEMPERATURE IN CELSIUS
  WCI - WIND CHILL INDEX
   HX - HEAT INDEX
  VSB - VISIBILITY



USA.gov is the U.S. government's official web portal to all federal, state and local government web resources and services.